{"data":{"norad_id":48452,"intl_designator":"2021-040AA","name":"STARLINK-2703","alt_names":[],"object_type":"PAYLOAD","status":"ACTIVE","operator":null,"country":"US","launch_date":"2021-05-09","launch_site_code":"AFETR","launch_vehicle":null,"mission":null,"orbit_class":"UNKNOWN","rcs_meters":null,"size_class":null,"mass_kg":null,"dimensions":null,"purposes":["comms"],"wikipedia_slug":null,"has_3d_model":false,"image_url":null,"decayed_at":null,"tle_current":{"epoch":"2026-09-19T23:22:19.163424Z","epoch_age_seconds":82791,"freshness":"FRESH","line1":"1 48452U 21040AA  26262.97383291 -.00000519  00000+0 -49848-5 0  9994","line2":"2 48452  53.1645 353.9646 0000615  72.1117 287.9951 15.31704619296450","mean_motion":15.31704619,"eccentricity":6.15e-5,"inclination_deg":53.1645,"raan_deg":353.9646,"arg_perigee_deg":72.1117,"mean_anomaly_deg":287.9951,"bstar":-4.9848e-6,"rev_number":29645,"period_min":94.012904455438,"perigee_km":470.30502117319,"apogee_km":471.14743135002,"semimajor_km":6848.8632262616,"source":"CELESTRAK","updated_at":"2026-09-20T09:00:39.126636Z"}}}